Location: Presov
(49.0000°N, 21.2500°E)
Time: 06:15:22
(UTC+02:00)

Transit 2A Rocket - Pass Details

Date: 15 April 2021
Orbit: 594 x 909 km, 66.7° (Epoch: 07 May)

Event Time Altitude Azimuth Distance (km) Brightness Sun altitude
Rises 19:47:28 0° 282° (WNW) 2,876 10.5 -4.0°
Reaches altitude 10° 19:51:17 10° 316° (NW) 1,945 8.4 -4.6°
Maximum altitude 19:52:49 12° 337° (NNW) 1,834 7.7 -4.8°
Drops below altitude 10° 19:54:22 10° 358° (N) 1,938 7.4 -5.0°
Sets 19:58:09 0° 32° (NNE) 2,853 7.9 -5.6°
